Location: Azul
(36.7830°S, 59.8500°W)
Time: 01:22:04
(UTC-03:00)

HuskySat-1 - Pass Details

Date: 24 October 2021
Orbit: 443 x 456 km, 51.6° (Epoch: 04 December)

Event Time Altitude Azimuth Distance (km) Brightness Sun altitude
Rises 21:13:34 0° 320° (NW) 2,478 ? -20.6°
Reaches altitude 10° 21:15:43 10° 323° (NW) 1,610 ? -20.9°
Enters shadow 21:16:53 19° 327° (NNW) 1,154 ? -21.1°
